Location: Brienzwiler
(46.7508°N, 8.1014°E)
Time: 01:31:28
(UTC+00:00)

Cosmos 1818 - Pass Details

Date: 05 July 2020
Orbit: 777 x 796 km, 65.0° (Epoch: 11 August)

Event Time Altitude Azimuth Distance (km) Brightness Sun altitude
Rises 20:46:48 0° 223° (SW) 3,268 6.7 -11.2°
Reaches altitude 10° 20:49:13 10° 226° (SW) 2,346 6.0 -11.4°
Maximum altitude 20:54:36 69° 309° (NW) 850 4.0 -12.0°
Drops below altitude 10° 21:00:02 10° 33° (NNE) 2,371 6.3 -12.5°
Sets 21:02:29 0° 36° (NE) 3,306 7.0 -12.8°
